This demonstration page uses our WeatherBlox Daily Observations layout. Learn more.

Left ArrowRight Arrow

38.20091, -84.87328

Hourly Observations for January 10, 2016

Temp ( °F °C ) Dew Point ( °F °C ) Humidity (%) Winds ( mph kmh ) Pressure ( in mb ) Visibility ( mi km ) Precip ( " mm )
12:19 am 00:19 Cloudy 49 9.4 46 7.8 90 90 S 10 17 29.50 999 10 16 0.01 0.25
12:53 am 00:53 Cloudy with Light Rain 49 9.4 46 7.8 90 90 S 8 13 29.49 999 10 16 0.01 0.25
1:53 am 01:53 Cloudy 48 8.9 44 6.7 86 86 SSW 10 17 29.49 999 10 16 0.00 0.03
2:42 am 02:42 Cloudy 47 8.3 44 6.7 90 90 SSW 10 17 29.50 999 9 14 0.00 0.00
2:53 am 02:53 Cloudy 47 8.3 44 6.7 90 90 SW 14 22 29.48 998 10 16 0.00 0.00
3:53 am 03:53 Cloudy 43 6.1 40 4.4 89 89 WSW 14 22 29.51 999 10 16 0.00 0.03
4:24 am 04:24 Cloudy 40 4.4 36 2.2 86 86 W 16 26 29.56 1001 9 14 0.00 0.00
4:53 am 04:53 Cloudy 38 3.3 34 1.1 86 86 W 15 24 29.56 1001 8 13 0.00 0.00
5:02 am 05:02 Cloudy 37 2.8 31 -0.6 79 79 W 18 30 29.59 1002 10 16 0.00 0.00
5:20 am 05:20 Cloudy 35 1.7 31 -0.6 85 85 W 13 20 29.59 1002 10 16 0.00 0.00
5:53 am 05:53 Cloudy with Light Snow 33 0.6 30 -1.1 89 89 W 9 15 29.61 1003 4 6 0.00 0.03
6:05 am 06:05 Cloudy with Light Snow 33 0.6 30 -1.1 89 89 W 16 26 29.65 1004 3 4 0.00 0.03
6:10 am 06:10 Cloudy with Light Snow 32 0 29 -1.7 88 88 W 15 24 29.65 1004 2 3 0.00 0.03
6:12 am 06:12 Cloudy with Light Snow 32 0 29 -1.7 88 88 W 16 26 29.65 1004 2 3 0.00 0.03
6:30 am 06:30 Windy with Snow Likely 30 -1.1 27 -2.8 88 88 W 21 33 29.68 1005 1 2 0.00 0.03
6:33 am 06:33 Windy with Snow Likely 30 -1.1 26 -3.3 85 85 W 20 31 29.68 1005 1 2 0.00 0.03
6:37 am 06:37 Cloudy with Light Snow 30 -1.1 26 -3.3 85 85 W 17 28 29.68 1005 2 3 0.00 0.03
6:43 am 06:43 Cloudy with Light Snow 30 -1.1 26 -3.3 85 85 W 15 24 29.71 1006 3 5 0.00 0.03
6:49 am 06:49 Cloudy with Light Snow 30 -1 27 -3 86 86 W 12 19 29.71 1006 3 5 0.00 0.03
6:53 am 06:53 Cloudy with Light Snow 30 -1.1 26 -3.3 85 85 W 12 19 29.68 1005 3 4 0.00 0.03
7:05 am 07:05 Cloudy with Light Snow 29 -1.7 26 -3.3 89 89 W 12 19 29.71 1006 1 2 0.00 0.03
7:09 am 07:09 Cloudy with Light Snow 29 -1.7 26 -3.3 89 89 W 12 19 29.71 1006 1 1 0.00 0.03
7:24 am 07:24 Cloudy with Light Snow 27 -2.8 24 -4.4 89 89 W 18 30 29.77 1008 1 1 0.00 0.03
7:32 am 07:32 Cloudy with Light Snow 27 -2.8 23 -5 85 85 W 15 24 29.77 1008 1 2 0.00 0.03
7:42 am 07:42 Cloudy with Light Snow 27 -2.8 23 -5 85 85 W 13 20 29.77 1008 2 3 0.00 0.03
7:48 am 07:48 Cloudy with Light Snow 27 -3 21 -6 80 80 W 17 28 29.80 1009 3 5 0.00 0.03
7:53 am 07:53 Cloudy with Light Snow 27 -2.8 22 -5.6 81 81 W 14 22 29.74 1007 3 5 0.00 0.03
8:04 am 08:04 Cloudy with Light Snow 26 -3.3 21 -6.1 81 81 W 14 22 29.80 1009 4 6 0.00 0.03
8:12 am 08:12 Cloudy with Light Snow 26 -3.3 21 -6.1 81 81 W 15 24 29.80 1009 5 8 0.00 0.03
8:17 am 08:17 Cloudy with Light Snow 26 -3.3 21 -6.1 81 81 W 12 19 29.83 1010 3 5 0.00 0.03
8:20 am 08:20 Cloudy with Light Snow 26 -3.3 22 -5.6 84 84 WSW 15 24 29.83 1010 3 4 0.00 0.03
8:34 am 08:34 Cloudy with Light Snow 26 -3.3 21 -6.1 81 81 W 15 24 29.83 1010 7 11 0.00 0.03
8:53 am 08:53 Cloudy 25 -3.9 21 -6.1 85 85 W 8 13 29.81 1010 10 16 0.00 0.03
9:40 am 09:40 Cloudy 23 -5 19 -7.2 85 85 W 13 20 29.91 1013 9 14 0.00 0.00
9:53 am 09:53 Cloudy 23 -5 18 -7.8 81 81 W 14 22 29.88 1012 9 14 0.00 0.00
10:12 am 10:12 Cloudy 23 -5 18 -7.8 81 81 W 15 24 29.94 1014 10 16 0.00 0.00
10:53 am 10:53 Cloudy 22 -5.6 17 -8.3 82 82 W 10 17 29.93 1013 10 16 0.00 0.00
11:53 am 11:53 Cloudy 21 -6.1 15 -9.4 78 78 W 10 17 29.96 1015 10 16 0.00 0.00
12:43 pm 12:43 Cloudy 20 -6.7 14 -10 78 78 W 17 28 30.03 1017 10 16 0.00 0.00
12:53 pm 12:53 Cloudy 20 -6.7 14 -10 78 78 W 13 20 29.98 1015 10 16 0.00 0.00
1:53 pm 13:53 Cloudy 20 -6.7 13 -10.6 74 74 W 9 15 29.99 1016 10 16 0.00 0.00
2:53 pm 14:53 Cloudy 19 -7.2 13 -10.6 77 77 W 14 22 30.02 1017 10 16 0.00 0.00
3:53 pm 15:53 Cloudy 19 -7.2 12 -11.1 74 74 W 9 15 30.06 1018 10 16 0.00 0.00
4:53 pm 16:53 Cloudy 18 -7.8 11 -11.7 74 74 W 13 20 30.09 1019 10 16 0.00 0.00
5:53 pm 17:53 Cloudy 17 -8.3 10 -12.2 74 74 W 9 15 30.13 1020 10 16 0.00 0.00
6:53 pm 18:53 Cloudy 15 -9.4 8 -13.3 74 74 W 15 24 30.16 1021 10 16 0.00 0.03
7:53 pm 19:53 Cloudy 15 -9.4 8 -13.3 74 74 W 13 20 30.19 1022 10 16 0.00 0.00
8:53 pm 20:53 Cloudy 14 -10 7 -13.9 73 73 W 7 11 30.20 1023 10 16 0.00 0.03
9:53 pm 21:53 Partly Cloudy 13 -10.6 6 -14.4 74 74 W 6 9 30.22 1023 10 16 0.00 0.00
10:53 pm 22:53 Clear 12 -11.1 6 -14.4 77 77 WSW 6 9 30.22 1023 10 16 0.00 0.00
11:53 pm 23:53 Clear 11 -11.7 6 -14.4 81 81 SW 9 15 30.23 1024 10 16 0.00 0.00

Powered by AerisWeather